Regional Weather Roundup
Issued by NWS Little Rock, AR

Home | Current Version | Previous Version | Text Only | Print | Product List | Glossary Off
Versions: 1 2 3 4 5 6 7 8 9 10 11 12 13 14 15 16 17 18 19 20 21 22 23 24 25 26 27 28 29 30 31

000
ASUS44 KLZK 212005
RWRLZK

WEATHER ROUNDUP FOR ARKANSAS
NATIONAL WEATHER SERVICE LITTLE ROCK AR
300 PM CDT SAT OCT 21 2017

NOTE: "FAIR" INDICATES FEW OR NO CLOUDS BELOW 12,000 FEET WITH NO
SIGNIFICANT WEATHER AND/OR OBSTRUCTIONS TO VISIBILITY.

ARZ001-003-010-029-212100-
NORTHWEST ARKANSAS

CITY           SKY/WX    TMP DP  RH WIND       PRES   REMARKS
FAYETTEVILLE   CLOUDY    77  66  68 S22       29.92F
FORT SMITH     PTSUNNY   83  65  54 S9G22     29.90F HX  85
HARRISON       CLOUDY    74  64  71 S14       29.98F
BENTONVILLE    CLOUDY    78  64  61 S21G26    29.93F
ROGERS         CLOUDY    76  64  66 S17G25    29.93S
SILOAM SPGS    PTSUNNY   78  64  61 S17G33    29.91S
HIGHFILL       PTSUNNY   77  64  64 S23G33    29.91F
SPRINGDALE     PTSUNNY   75  64  69 S13G23    29.94F
$$

ARZ004-005-016-212100-
NORTH CENTRAL ARKANSAS

CITY           SKY/WX    TMP DP  RH WIND       PRES   REMARKS
BATESVILLE     CLOUDY    76  68  76 SE8       30.01F
FLIPPIN        CLOUDY    72  65  78 S8        29.99F
MTN HOME       CLOUDY    72  66  81 S12       29.98F
$$

ARZ040-041-212100-
WEST CENTRAL ARKANSAS

CITY           SKY/WX    TMP DP  RH WIND       PRES   REMARKS
MENA           PTSUNNY   81  72  74 S3        29.96F
MOUNT IDA      CLOUDY    74  68  81 VRB5      29.96F
$$

ARZ009-017-025-026-028-212100-
NORTHEAST ARKANSAS

CITY           SKY/WX    TMP DP  RH WIND       PRES   REMARKS
CORNING        FAIR      82  66  57 S18G24    30.02F HX  85
JONESBORO      LGT RAIN  85  64  49 SW17G23   30.02F HX  86
NEWPORT        PTSUNNY   82  64  54 S12       30.01F
WALNUT RIDGE   MOSUNNY   84  64  50 S17       30.01F HX  85
BLYTHEVILLE    MOSUNNY   82  63  52 S17G23    30.06F
$$

ARZ022-023-033-042-044-212100-
CENTRAL ARKANSAS

CITY           SKY/WX    TMP DP  RH WIND       PRES   REMARKS
LITTLE ROCK    CLOUDY    78  71  79 S9        30.00S
N LITTLE ROCK    N/A     78  69  75 S6        30.01F
JACKSONVILLE   LGT RAIN  78  70  76 SW12      29.99F
SEARCY         CLOUDY    81  70  69 S10       30.00F
HOT SPRINGS    CLOUDY    76  70  82 SE10      29.98F
RUSSELLVILLE   PTSUNNY   76  68  76 VRB7      29.97F
CLINTON        CLOUDY    72  68  88 CALM      30.00F
$$

ARZ036-212100-
EAST ARKANSAS

CITY           SKY/WX    TMP DP  RH WIND       PRES   REMARKS
WEST MEMPHIS   LGT RAIN  83  64  52 SE18G24   30.04F
$$

ARZ050-053-066-070-073-212100-
SOUTHWEST ARKANSAS

CITY           SKY/WX    TMP DP  RH WIND       PRES   REMARKS
ARKADELPHIA    CLOUDY    79  70  74 S6        29.98F
CAMDEN         MOSUNNY   84  68  58 VRB7      29.97F HX  87
TEXARKANA      PTSUNNY   84  67  56 S13G20    29.93F HX  86
EL DORADO      CLOUDY    81  72  74 S8        29.98F HX  85
DE QUEEN       MOSUNNY   83  70  64 S10G17    29.91F HX  87
$$

ARZ056-057-069-212100-
SOUTHEAST ARKANSAS

CITY           SKY/WX    TMP DP  RH WIND       PRES   REMARKS
PINE BLUFF     MOSUNNY   84  67  56 S15G21    29.99F HX  86
STUTTGART      CLOUDY    83  66  56 S16       30.01F HX  85
MONTICELLO     PTSUNNY   83  66  56 S8        30.00F HX  85

$$






USA.gov is the U.S. government's official web portal to all federal, state and local government web resources and services.